This demonstration page uses our WeatherBlox Daily Observations layout. Learn more.

Left ArrowRight Arrow

Hourly Observations for July 10, 2015

Temp ( °F °C ) Dew Point ( °F °C ) Humidity (%) Winds ( mph kmh ) Pressure ( in mb ) Visibility ( mi km ) Precip ( " mm )
12:15 am 00:15 Mostly Cloudy 79 26 72 22 79 79 W 9 15 29.97 1015 10 16 N/A
12:35 am 00:35 Partly Cloudy 79 26 72 22 79 79 W 9 15 29.97 1015 10 16 N/A
12:55 am 00:55 Mostly Cloudy 79 26 72 22 79 79 W 7 11 29.97 1015 10 16 N/A
1:15 am 01:15 Cloudy 79 26 72 22 79 79 W 6 9 29.97 1015 10 16 N/A
1:35 am 01:35 Partly Cloudy 77 25 72 22 83 83 WNW 8 13 29.97 1015 10 16 N/A
1:55 am 01:55 Clear 77 25 72 22 83 83 WNW 10 17 29.97 1015 10 16 N/A
2:15 am 02:15 Clear 77 25 72 22 83 83 WNW 9 15 29.97 1015 10 16 N/A
2:35 am 02:35 Clear 75 24 72 22 89 89 WNW 10 17 29.97 1015 10 16 N/A
2:55 am 02:55 Clear 75 24 72 22 89 89 WNW 12 19 29.97 1015 10 16 N/A
3:15 am 03:15 Clear 75 24 70 21 83 83 WNW 12 19 29.97 1015 10 16 N/A
3:35 am 03:35 Clear 75 24 70 21 83 83 WNW 16 26 29.97 1015 10 16 N/A
3:55 am 03:55 Clear 75 24 70 21 83 83 NW 16 26 29.97 1015 10 16 N/A
4:15 am 04:15 Clear 75 24 70 21 83 83 NW 17 28 29.97 1015 10 16 N/A
4:35 am 04:35 Clear 73 23 70 21 89 89 NW 15 24 30.00 1016 10 16 N/A
4:55 am 04:55 Clear 73 23 70 21 89 89 NW 14 22 30.00 1016 10 16 N/A
5:15 am 05:15 Clear 73 23 68 20 83 83 NW 15 24 30.00 1016 10 16 N/A
5:35 am 05:35 Clear 73 23 68 20 83 83 NW 16 26 30.03 1017 10 16 N/A
5:55 am 05:55 Sunny 72 22 66 19 83 83 NW 10 17 30.03 1017 10 16 N/A
6:15 am 06:15 Sunny 72 22 64 18 78 78 NW 10 17 30.03 1017 10 16 N/A
6:35 am 06:35 Sunny 72 22 64 18 78 78 NW 8 13 30.03 1017 10 16 N/A
6:55 am 06:55 Mostly Cloudy 72 22 63 17 73 73 NW 10 17 30.03 1017 10 16 N/A
7:15 am 07:15 Cloudy 72 22 63 17 73 73 NW 15 24 30.06 1018 10 16 N/A
7:35 am 07:35 Mostly Cloudy 72 22 64 18 78 78 NW 15 24 30.06 1018 10 16 N/A
7:55 am 07:55 Mostly Cloudy 73 23 64 18 74 74 NW 13 20 30.06 1018 10 16 N/A
8:15 am 08:15 Partly Cloudy 73 23 64 18 74 74 NNW 9 15 30.06 1018 10 16 N/A
8:35 am 08:35 Partly Cloudy 73 23 64 18 74 74 NW 10 17 30.09 1019 10 16 N/A
8:55 am 08:55 Partly Cloudy 73 23 64 18 74 74 NW 10 17 30.09 1019 10 16 N/A
9:15 am 09:15 Mostly Cloudy 75 24 64 18 69 69 NW 12 19 30.09 1019 10 16 N/A
9:35 am 09:35 Cloudy 75 24 64 18 69 69 NW 9 15 30.09 1019 10 16 N/A
9:55 am 09:55 Cloudy 77 25 64 18 65 65 NW 10 17 30.09 1019 10 16 N/A
10:15 am 10:15 Cloudy 77 25 64 18 65 65 N 5 7 30.09 1019 10 16 N/A
10:35 am 10:35 Cloudy 77 25 63 17 61 61 NNE 7 11 30.09 1019 10 16 N/A
10:55 am 10:55 Partly Cloudy 79 26 64 18 61 61 NW 6 9 30.09 1019 10 16 N/A
11:15 am 11:15 Partly Cloudy 79 26 64 18 61 61 N 5 7 30.09 1019 10 16 N/A
11:35 am 11:35 Partly Cloudy 79 26 64 18 61 61 NW 9 15 30.09 1019 10 16 N/A
11:55 am 11:55 Partly Cloudy 79 26 66 19 65 65 NW 12 19 30.09 1019 10 16 N/A
12:15 pm 12:15 Mostly Cloudy with Nearby Thunderstorms 81 27 66 19 62 62 WNW 9 15 30.09 1019 10 16 N/A
12:35 pm 12:35 Partly Cloudy 81 27 66 19 62 62 NW 8 13 30.09 1019 10 16 N/A
12:55 pm 12:55 Partly Cloudy 81 27 66 19 62 62 NW 10 17 30.09 1019 10 16 N/A
1:15 pm 13:15 Mostly Cloudy 81 27 66 19 62 62 NNW 8 13 30.09 1019 10 16 N/A
1:35 pm 13:35 Cloudy 81 27 68 20 66 66 NNE 7 11 30.09 1019 10 16 N/A
1:55 pm 13:55 Cloudy 82 28 68 20 62 62 NNE 9 15 30.09 1019 10 16 N/A
2:15 pm 14:15 Partly Cloudy 82 28 68 20 62 62 N 7 11 30.09 1019 10 16 N/A
2:35 pm 14:35 Partly Cloudy 82 28 70 21 66 66 NNE 8 13 30.06 1018 10 16 N/A
2:55 pm 14:55 Mostly Cloudy 82 28 70 21 66 66 N 7 11 30.06 1018 10 16 N/A
3:15 pm 15:15 Cloudy 82 28 70 21 66 66 NW 10 17 30.06 1018 10 16 N/A
3:35 pm 15:35 Mostly Cloudy 82 28 70 21 66 66 N N/A 30.06 1018 10 16 N/A
3:55 pm 15:55 Mostly Cloudy 82 28 70 21 66 66 NNE 5 7 30.06 1018 10 16 N/A
4:15 pm 16:15 Mostly Cloudy 82 28 70 21 66 66 NE 7 11 30.06 1018 10 16 N/A
4:35 pm 16:35 Mostly Cloudy 82 28 70 21 66 66 N 8 13 30.06 1018 10 16 N/A
4:55 pm 16:55 Partly Cloudy 82 28 70 21 66 66 NNE 5 7 30.03 1017 10 16 N/A
5:15 pm 17:15 Sunny 82 28 70 21 66 66 N N/A 30.03 1017 10 16 N/A
5:35 pm 17:35 Sunny 82 28 70 21 66 66 N N/A 30.03 1017 10 16 N/A
5:50 pm 17:50 Sunny 82 28 70 21 66 66 NNW 5 7 30.03 1017 10 16 N/A
6:15 pm 18:15 Sunny 82 28 70 21 66 66 N N/A 30.03 1017 10 16 N/A
6:35 pm 18:35 Partly Cloudy 81 27 70 21 70 70 N N/A 30.03 1017 10 16 N/A
6:55 pm 18:55 Mostly Cloudy 82 28 70 21 66 66 NE 5 7 30.03 1017 10 16 N/A
7:15 pm 19:15 Mostly Cloudy 81 27 70 21 70 70 N 5 7 30.06 1018 10 16 N/A
7:35 pm 19:35 Cloudy 81 27 70 21 70 70 N 6 9 30.06 1018 10 16 N/A
7:55 pm 19:55 Cloudy 81 27 70 21 70 70 N 7 11 30.06 1018 10 16 N/A
8:15 pm 20:15 Cloudy 81 27 70 21 70 70 N 5 7 30.03 1017 10 16 N/A
8:35 pm 20:35 Cloudy 79 26 70 21 74 74 N N/A 30.06 1018 10 16 N/A
8:55 pm 20:55 Cloudy 79 26 70 21 74 74 W 7 11 30.06 1018 10 16 N/A
9:15 pm 21:15 Cloudy 79 26 72 22 79 79 W 6 9 30.06 1018 10 16 N/A
9:35 pm 21:35 Mostly Cloudy 77 25 70 21 79 79 WNW 6 9 30.06 1018 10 16 N/A
9:55 pm 21:55 Cloudy 77 25 72 22 83 83 W 3 6 30.06 1018 10 16 N/A
10:15 pm 22:15 Cloudy 77 25 72 22 83 83 N N/A 30.06 1018 10 16 N/A
10:35 pm 22:35 Mostly Cloudy 77 25 70 21 79 79 N N/A 30.06 1018 10 16 N/A
10:55 pm 22:55 Mostly Cloudy 77 25 72 22 83 83 N N/A 30.06 1018 10 16 N/A
11:15 pm 23:15 Mostly Cloudy 77 25 70 21 79 79 N N/A 30.06 1018 10 16 N/A
11:35 pm 23:35 Partly Cloudy 77 25 70 21 79 79 N N/A 30.06 1018 10 16 N/A
11:55 pm 23:55 Mostly Cloudy 77 25 70 21 79 79 N N/A 30.09 1019 10 16 N/A

Powered by AerisWeather